This demonstration page uses our WeatherBlox Daily Observations layout. Learn more.

Left ArrowRight Arrow

39.08367, -84.50855

Hourly Observations for September 21, 2017

Temp ( °F °C ) Dew Point ( °F °C ) Humidity (%) Winds ( mph kmh ) Pressure ( in mb ) Visibility ( mi km ) Precip ( " mm )
12:00 am 00:00 Clear with Mist and Fog 66 18.9 66 18.9 100 100 N N/A 30.00 1016 1 2 N/A
12:11 am 00:11 Clear with Mist and Fog 67 19.4 67 19.4 100 100 N N/A 30.00 1016 3 5 N/A
12:18 am 00:18 Clear with Mist and Fog 67 19.4 67 19.4 100 100 N N/A 30.00 1016 2 3 N/A
12:25 am 00:25 Clear with Mist and Fog 67 19.4 67 19.4 100 100 N N/A 30.00 1016 2 3 N/A
12:30 am 00:30 Clear with Mist and Fog 67 19.4 67 19.4 100 100 N N/A 30.00 1016 3 5 N/A
12:41 am 00:41 Mostly Cloudy with Mist and Fog 66 18.9 66 18.9 100 100 N N/A 30.00 1016 1 2 N/A
12:47 am 00:47 Mostly Cloudy with Fog 66 19 66 19 100 100 N N/A 30.00 1016 0 0 N/A
12:48 am 00:48 Mostly Cloudy with Fog 66 18.9 66 18.9 100 100 N N/A 30.02 1017 0 0 N/A
12:59 am 00:59 Mostly Cloudy with Fog 67 19.4 67 19.4 100 100 N N/A 30.00 1016 1 1 N/A
1:26 am 01:26 Mostly Cloudy with Fog 65 18.3 65 18.3 100 100 N N/A 30.00 1016 0 0 N/A
1:40 am 01:40 Mostly Cloudy with Mist and Fog 65 18.3 65 18.3 100 100 N N/A 30.03 1017 1 2 N/A
1:43 am 01:43 Mostly Cloudy with Mist and Fog 65 18.3 65 18.3 100 100 N N/A 30.03 1017 3 5 N/A
1:47 am 01:47 Mostly Cloudy with Mist and Fog 64 18 64 18 100 100 N N/A 30.03 1017 2 3 N/A
1:53 am 01:53 Mostly Cloudy with Fog 66 18.9 66 18.9 100 100 N N/A 30.04 1017 1 1 N/A
2:03 am 02:03 Partly Cloudy with Mist and Fog 66 18.9 66 18.9 100 100 N N/A 30.03 1017 2 3 N/A
2:06 am 02:06 Partly Cloudy with Mist and Fog 66 18.9 66 18.9 100 100 N N/A 30.03 1017 3 5 N/A
2:12 am 02:12 Partly Cloudy with Mist and Fog 66 18.9 66 18.9 100 100 N N/A 30.03 1017 1 2 N/A
2:19 am 02:19 Mostly Cloudy with Fog 64 17.8 64 17.8 100 100 N N/A 30.03 1017 1 1 N/A
2:44 am 02:44 Mostly Cloudy with Fog 64 17.8 64 17.8 100 100 N N/A 30.03 1017 0 0 N/A
2:53 am 02:53 Mostly Cloudy with Fog 65 18.3 65 18.3 100 100 N N/A 30.05 1018 0 0 N/A
3:30 am 03:30 Mostly Clear with Fog 64 17.8 64 17.8 100 100 N N/A 30.03 1017 0 0 N/A
3:50 am 03:50 Mostly Cloudy with Fog 63 17 63 17 100 100 N N/A 30.03 1017 0 0 N/A
3:53 am 03:53 Mostly Cloudy with Fog 64 17.8 64 17.8 100 100 N N/A 30.05 1018 0 0 N/A
4:53 am 04:53 Mostly Cloudy with Fog 65 18.3 65 18.3 100 100 N N/A 30.05 1018 0 0 N/A
5:53 am 05:53 Mostly Cloudy with Fog 66 18.9 66 18.9 100 100 N N/A 30.06 1018 0 0 N/A
6:53 am 06:53 Mostly Cloudy with Fog 65 18.3 65 18.3 100 100 N N/A 30.08 1019 0 0 N/A
7:53 am 07:53 Mostly Cloudy with Fog 64 17.8 64 17.8 100 100 N N/A 30.10 1019 1 2 N/A
8:53 am 08:53 Mostly Cloudy with Fog 67 19.4 67 19.4 100 100 N N/A 30.11 1020 1 1 N/A
9:06 am 09:06 Partly Cloudy with Mist and Fog 68 20 68 20 100 100 N N/A 30.09 1019 1 2 N/A
9:19 am 09:19 Partly Cloudy with Mist and Fog 68 20 68 20 100 100 SSW 3 6 30.09 1019 2 3 N/A
9:32 am 09:32 Partly Cloudy with Mist and Fog 68 20 68 20 100 100 N N/A 30.09 1019 4 6 N/A
9:53 am 09:53 Sunny with Mist and Fog 70 21.1 70 21.1 100 100 N N/A 30.11 1020 5 8 N/A
10:53 am 10:53 Sunny 78 25.6 72 22.2 82 82 S 3 6 30.11 1020 10 16 N/A
11:53 am 11:53 Sunny 83 28.3 73 22.8 72 72 N N/A 30.10 1019 10 16 N/A
12:53 pm 12:53 Sunny 86 30 73 22.8 65 65 VRB 5 7 30.08 1019 10 16 N/A
1:53 pm 13:53 Sunny 88 31.1 71 21.7 57 57 N N/A 30.07 1018 10 16 N/A
2:53 pm 14:53 Partly Cloudy 90 32.2 68 20 48 48 VRB 3 6 30.05 1018 10 16 N/A
3:53 pm 15:53 Sunny 90 32.2 68 20 48 48 N N/A 30.03 1017 10 16 N/A
4:53 pm 16:53 Partly Cloudy 92 33.3 68 20 46 46 NE 3 6 30.01 1016 10 16 N/A
5:53 pm 17:53 Mostly Sunny 88 31.1 71 21.7 57 57 SSE 5 7 30.01 1016 10 16 N/A
6:12 pm 18:12 Partly Cloudy with Nearby Thunderstorms 87 30.6 71 21.7 59 59 S 6 9 30.00 1016 10 16 N/A
6:27 pm 18:27 Mostly Sunny 86 30 71 21.7 61 61 N N/A 30.00 1016 10 16 N/A
6:53 pm 18:53 Mostly Sunny 82 27.8 74 23.3 77 77 S 5 7 30.01 1016 10 16 N/A
7:53 pm 19:53 Mostly Clear 80 26.7 73 22.8 79 79 N N/A 30.02 1017 10 16 N/A
8:53 pm 20:53 Partly Cloudy 74 23.3 73 22.8 97 97 N N/A 30.04 1017 8 13 N/A
9:53 pm 21:53 Mostly Clear 74 23.3 72 22.2 94 94 N N/A 30.05 1018 8 13 N/A
10:53 pm 22:53 Clear with Mist and Fog 71 21.7 71 21.7 100 100 N N/A 30.06 1018 5 8 N/A
11:53 pm 23:53 Clear with Mist and Fog 71 21.7 71 21.7 100 100 N N/A 30.06 1018 5 8 N/A

Powered by AerisWeather